Location: Sungai Liu
(2.3667°N, 113.8667°E)
Time: 11:55:39
(UTC+00:00)

Ariane H10+ - Pass Details

Date: 20 May 2022
Orbit: 662 x 36726 km, 4.0° (Epoch: 04 July)

Event Time Altitude Azimuth Distance (km) Brightness Sun altitude
Rises 12:34:44 0° 266° (W) 3,748 6.9 -30.2°
Reaches altitude 10° 12:37:33 10° 265° (W) 2,285 5.6 -30.8°
Enters shadow 12:39:59 34° 263° (W) 1,088 3.6 -31.4°
